Weather Roundup
Issued by NWS

Home | Current Version | Previous Version | Graphics & Text | Print | Product List | Glossary Off
Versions: 1 2 3 4 5 6 7 8 9 10 11 12 13 14 15 16 17 18 19 20 21 22 23 24 25 26 27 28 29 30 31 32 33 34 35 36 37 38 39 40 41 42 43 44 45 46 47 48 49 50

000
NZUS93 KARX 101510
HRRWXR

CURRENT HOURLY OBSERVATIONS ACROSS
MUCH OF THE UPPER MISSISSIPPI VALLEY
NATIONAL WEATHER SERVICE LA CROSSE WI
900 AM CST SUN DEC 10 2017


...SOUTHEAST MINNESOTA...


CITY           SKY/WX    TMP DP  RH WIND       PRES   REMARKS
ROCHESTER      PTSUNNY   24  21  88 N15       29.91R WCI  11
ROCHESTER/MAYO CLOUDY    24  20  86 NW8G17    29.92R WCI  15
WINONA         PTSUNNY   28  23  80 NW10G16   29.94R WCI  19
AUSTIN         SUNNY     27  21  80 NW10G16   29.92R WCI  17
ALBERT LEA     SUNNY     28  21  74 NW12G20   29.94R WCI  18
DODGE CENTER   CLOUDY    25  21  86 NW8       29.92R WCI  16
PRESTON        SUNNY     24  20  85 N12       29.91R WCI  12
OWATONNA       NOT AVBL
FARIBAULT      CLOUDY    27  21  80 NW7       29.95R WCI  19
$$

...ELSEWHERE IN MINNESOTA...


CITY           SKY/WX    TMP DP  RH WIND       PRES   REMARKS
MINNEAPOLIS    CLOUDY    27  22  81 NW13      29.96R WCI  16
INTNL FALLS    CLOUDY    15   9  76 NW6       29.97R HAZE    WCI   6
DULUTH         CLOUDY    18  14  84 N8        29.89R WCI   8
RED WING       CLOUDY    25  18  74 CALM      29.93R
REDWOOD FALLS  CLEAR     30  20  66 NW10G21   29.99R WCI  21
MANKATO        SUNNY     27  22  81 NW15      29.98R WCI  15
WORTHINGTON    CLEAR     31  25  78 W12       30.00R WCI  22
FAIRMONT       SUNNY     31  24  75 NW17G24   29.97R WCI  19
$$

...SOUTHWEST WISCONSIN...


CITY           SKY/WX    TMP DP  RH WIND       PRES   REMARKS
LA CROSSE      CLOUDY    26  19  74 N7        29.91R WCI  18
PRAIRIE DU CHI CLOUDY    25  18  74 NW5       29.91R WCI  19
BOSCOBEL       CLOUDY    21  17  84 CALM      29.90R
LONE ROCK      CLOUDY    22  18  85 W5        29.89R WCI  16
PLATTEVILLE    CLOUDY    24  20  87 W5        29.87S WCI  18
FORT MC COY    CLOUDY    23  19  84 CALM      29.90R
CAMP DOUGLAS   CLOUDY    25  18  74 NW10      29.87R WCI  15
MAUSTON-NEW LI CLOUDY    25  19  78 NW6       29.86R WCI  18
VIROQUA        CLOUDY    22  20  93 NW3       29.85R
WIS DELLS      CLOUDY    23  17  76 W8        29.86R WCI  14
$$

...ELSEWHERE IN WISCONSIN...


CITY           SKY/WX    TMP DP  RH WIND       PRES   REMARKS
MILWAUKEE      PTSUNNY   26  17  68 SW10      29.88R WCI  16
MADISON        CLOUDY    23  16  74 W5        29.86R WCI  17
GREEN BAY      CLOUDY    20  17  88 W6        29.86S WCI  12
EAU CLAIRE     CLOUDY    20  16  84 S3        29.89R
BLACK RVR FLS  CLOUDY    24  18  77 NW3       29.89R
MEDFORD        CLOUDY    18  16  93 N8        29.83R WCI   7
WAUSAU         CLOUDY    19  16  88 NW6       29.83R WCI  11
WIS RAPIDS     CLOUDY    21  16  81 NW6       29.87R WCI  13
MARSHFIELD     CLOUDY    20  17  88 N12       29.84R WCI   8
RICE LAKE      CLOUDY    23  18  81 CALM      29.91R
$$

...NORTHEAST IOWA...


CITY           SKY/WX    TMP DP  RH WIND       PRES   REMARKS
WATERLOO       MOSUNNY   31  23  72 NW17      29.92R WCI  19
DUBUQUE        CLOUDY    24  18  77 W9        29.87R WCI  14
DECORAH        CLOUDY    23  19  86 NW7       29.87R WCI  15
MASON CITY     SUNNY     29  23  78 NW15      29.96R WCI  18
CHARLES CITY   CLOUDY    28  25  86 NW13      29.92R WCI  18
OELWEIN        CLOUDY    27  25  93 NW17      29.90R WCI  14
$$

...ELSEWHERE IN IOWA...


CITY           SKY/WX    TMP DP  RH WIND       PRES   REMARKS
DES MOINES     PTSUNNY   35  25  66 NW15      29.99R WCI  25
IOWA CITY      MOSUNNY   30  21  69 W12       29.94R WCI  20
FORT DODGE     MOSUNNY   34  24  67 NW13G18   29.99R WCI  25
MARSHALLTOWN   CLOUDY    32  25  75 NW15      29.94R WCI  22
CEDAR RAPIDS   MOSUNNY   30  23  75 NW13      29.90R WCI  20
$$

...NORTHERN ILLINOIS...


CITY           SKY/WX    TMP DP  RH WIND       PRES   REMARKS
CHICAGO-OHARE  CLOUDY    27  16  63 SW15      29.89F WCI  15
CHICAGO-MIDWAY CLOUDY    27  17  66 SW13      29.91F WCI  16
MOLINE         CLOUDY    30  20  66 W10       29.91R WCI  21
ROCKFORD       PTSUNNY   26  17  68 SW7       29.91R WCI  18
PEORIA         SUNNY     27  17  66 SW14      29.96F WCI  16
$$

NOTE: "FAIR" INDICATES FEW OR NO CLOUDS BELOW 12,000 FEET WITH NO
SIGNIFICANT WEATHER AND/OR OBSTRUCTIONS TO VISIBILITY. WIND
SPEEDS ARE IN MILES-PER-HOUR.




USA.gov is the U.S. government's official web portal to all federal, state and local government web resources and services.